Location: Pisa
(43.7170°N, 10.3830°E)
Time: 07:36:38
(UTC+02:00)

ISS - Pass Details

Date: 17 May 2021
Orbit: 417 x 422 km, 51.6° (Epoch: 23 June)

Event Time Altitude Azimuth Distance (km) Brightness Sun altitude
Rises 02:04:46 0° 302° (WNW) 2,372 0.3 -25.9°
Reaches altitude 10° 02:07:03 10° 314° (NW) 1,507 -0.6 -25.8°
Maximum altitude 02:10:03 29° 17° (NNE) 805 -1.7 -25.7°
Drops below altitude 10° 02:13:04 10° 80° (E) 1,506 -0.7 -25.6°
Sets 02:15:20 0° 92° (E) 2,369 0.2 -25.4°
